Location: Newark
(45.9456°N, 15.4064°E)
Time: 20:26:31
(UTC+00:00)

Courier 1B Rocket - Pass Details

Date: 27 January 2020
Orbit: 920 x 1202 km, 28.2° (Epoch: 19 February)

Event Time Altitude Azimuth Distance (km) Brightness Sun altitude
Rises 10:43:09 0° 231° (SW) 3,964 8.6 25.2°
Reaches altitude 10° 10:47:06 10° 212° (SSW) 2,950 8.4 25.3°
Maximum altitude 10:51:25 17° 175° (S) 2,411 9.7 25.4°
Drops below altitude 10° 10:55:35 10° 137° (SE) 2,822 8.3 25.4°
Sets 10:59:14 0° 118° (ESE) 3,718 8.5 25.5°
